N3DXC Weather Reports


time (UTC)temp
C
wind
direction
speed
KPH
gust
KPH
rain 1hr
cm
rain 24hr
cm
rain mn
cm
humidity
%
barometer
mb
20260509173938 11 225 14.5 24.1 0.00 0.00 0.00 94 1009.6
20260509173439 11 237 17.7 27.4 0.00 0.00 0.00 94 1009.6
20260509172938 11 225 14.5 24.1 0.00 0.00 0.00 94 1009.6
20260509172438 11 232 20.9 20.9 0.00 0.00 0.00 95 1009.5
20260509171938 11 219 14.5 22.5 0.00 0.00 0.00 95 1009.4
20260509171438 11 202 12.9 20.9 0.00 0.00 0.00 95 1009.5
20260509170938 10 203 14.5 25.7 0.00 0.00 0.00 95 1009.5
20260509170438 11 208 16.1 25.7 0.00 0.00 0.00 95 1009.6
20260509165938 11 243 17.7 25.7 0.00 0.00 0.00 95 1009.5
20260509165438 11 241 17.7 25.7 0.00 0.00 0.00 95 1009.5
20260509164938 11 209 16.1 27.4 0.00 0.00 0.00 95 1009.5
20260509164439 10 237 20.9 25.7 0.00 0.00 0.00 94 1009.4
20260509163938 10 219 19.3 32.2 0.00 0.00 0.00 94 1009.4
20260509163440 10 230 17.7 22.5 0.00 0.00 0.00 94 1009.4
20260509162938 10 239 17.7 25.7 0.00 0.00 0.00 94 1009.4
20260509162440 10 251 17.7 29.0 0.00 0.00 0.00 94 1009.3
20260509161939 10 220 17.7 33.8 0.00 0.00 0.00 94 1009.3
20260509161438 10 220 19.3 27.4 0.00 0.00 0.00 95 1009.3
20260509160938 10 237 19.3 29.0 0.00 0.00 0.00 94 1009.2
20260509160438 10 230 16.1 29.0 0.00 0.00 0.00 95 1009.2
20260509160016 10 201 14.5 25.7 0.00 0.00 0.00 95 1009.1
20260509155939 10 201 14.5 25.7 0.00 0.00 0.00 95 1009.1
20260509155438 10 217 16.1 24.1 0.00 0.00 0.00 95 1009.1
20260509154938 10 227 16.1 25.7 0.00 0.00 0.00 95 1009.1
20260509154438 10 229 16.1 25.7 0.00 0.00 0.00 95 1009.1
20260509153938 10 217 22.5 29.0 0.00 0.00 0.00 95 1009.0
20260509153438 10 217 16.1 22.5 0.00 0.00 0.00 95 1009.1
20260509152938 10 227 14.5 27.4 0.00 0.00 0.00 95 1009.1
20260509152438 10 234 17.7 27.4 0.00 0.00 0.00 95 1009.1
20260509151940 10 222 19.3 25.7 0.00 0.00 0.00 95 1009.0
20260509151438 10 223 20.9 27.4 0.00 0.00 0.00 95 1009.0
20260509150938 10 203 16.1 22.5 0.00 0.00 0.00 95 1009.1
20260509150438 10 202 16.1 27.4 0.00 0.00 0.00 95 1009.0
20260509145938 10 234 19.3 29.0 0.00 0.00 0.00 95 1009.1
20260509145438 10 222 20.9 27.4 0.00 0.00 0.00 95 1009.1
20260509144938 10 227 17.7 27.4 0.00 0.00 0.00 95 1009.0
20260509143939 10 208 19.3 30.6 0.00 0.00 0.00 95 1009.1
20260509143438 10 233 19.3 27.4 0.00 0.00 0.00 95 1009.1
20260509142938 10 237 24.1 27.4 0.00 0.00 0.00 95 1009.2
20260509142439 10 234 19.3 24.1 0.00 0.00 0.00 95 1009.2
20260509141938 10 233 12.9 24.1 0.00 0.00 0.00 95 1009.1
20260509141440 10 213 20.9 30.6 0.00 0.00 0.00 95 1009.2
20260509140939 10 239 16.1 32.2 0.00 0.00 0.00 96 1009.2
20260509140438 10 223 14.5 29.0 0.00 0.00 0.00 96 1009.2
20260509135938 10 199 16.1 19.3 0.00 0.00 0.00 96 1009.2
20260509135438 10 240 14.5 25.7 0.00 0.00 0.00 96 1009.2
20260509134938 10 219 12.9 19.3 0.00 0.00 0.00 96 1009.2
20260509134439 10 206 11.3 17.7 0.00 0.00 0.00 96 1009.2
20260509133938 9 201 17.7 24.1 0.00 0.00 0.00 96 1009.2
20260509133438 10 227 16.1 25.7 0.00 0.00 0.00 96 1009.2
20260509132938 9 205 12.9 20.9 0.00 0.00 0.00 96 1009.3
20260509132438 10 220 17.7 20.9 0.00 0.00 0.00 96 1009.4
20260509131938 9 209 16.1 20.9 0.00 0.00 0.00 96 1009.3
20260509131438 10 205 17.7 22.5 0.00 0.00 0.00 95 1009.4
20260509130938 9 223 14.5 19.3 0.00 0.00 0.00 95 1009.4
20260509130440 10 236 11.3 27.4 0.00 0.00 0.00 95 1009.4
20260509125940 9 196 24.1 25.7 0.00 0.00 0.00 95 1009.4
20260509125438 9 209 17.7 27.4 0.00 0.00 0.00 95 1009.5
20260509124938 10 244 20.9 20.9 0.00 0.00 0.00 95 1009.5
20260509124438 9 247 17.7 24.1 0.00 0.00 0.00 95 1009.5
20260509123939 9 192 14.5 24.1 0.00 0.00 0.00 95 1009.5
20260509123439 9 234 20.9 27.4 0.00 0.00 0.00 95 1009.6
20260509122938 9 250 11.3 25.7 0.00 0.00 0.00 95 1009.6
20260509122438 9 199 16.1 19.3 0.00 0.00 0.00 95 1009.4
20260509121938 9 220 9.7 20.9 0.00 0.00 0.00 95 1009.5
20260509121438 9 241 17.7 20.9 0.00 0.00 0.00 95 1009.6
20260509120938 9 227 14.5 22.5 0.00 0.00 0.00 95 1009.6
20260509120438 9 217 20.9 20.9 0.00 0.00 0.00 95 1009.5
20260509115939 9 209 17.7 22.5 0.00 0.00 0.00 95 1009.5
20260509115439 9 198 12.9 19.3 0.00 0.00 0.00 94 1009.5
20260509114939 9 226 14.5 24.1 0.00 0.00 0.00 94 1009.5
20260509114438 9 225 22.5 24.1 0.00 0.00 0.00 94 1009.5
20260509113941 9 226 22.5 25.7 0.00 0.00 0.00 94 1009.5
20260509113439 9 217 11.3 20.9 0.00 0.00 0.00 94 1009.5
20260509112938 9 209 14.5 20.9 0.00 0.00 0.00 94 1009.6
20260509112439 9 209 17.7 22.5 0.00 0.00 0.00 94 1009.5
20260509111939 9 229 9.7 17.7 0.00 0.00 0.00 94 1009.6
20260509111439 9 199 12.9 16.1 0.00 0.00 0.00 94 1009.6
20260509110939 9 239 12.9 16.1 0.00 0.00 0.00 94 1009.6
20260509110439 9 209 9.7 17.7 0.00 0.00 0.00 94 1009.5
20260509105939 9 213 6.4 19.3 0.00 0.00 0.00 94 1009.5
20260509105439 8 191 12.9 20.9 0.00 0.00 0.00 94 1009.5
20260509104939 8 213 14.5 22.5 0.00 0.00 0.00 94 1009.5
20260509104439 8 220 19.3 20.9 0.00 0.00 0.00 94 1009.5
20260509103939 8 189 16.1 22.5 0.00 0.00 0.00 94 1009.5
20260509103439 8 212 12.9 19.3 0.00 0.00 0.00 93 1009.5
20260509102939 8 174 14.5 20.9 0.00 0.00 0.00 93 1009.5
20260509102439 8 225 19.3 19.3 0.00 0.00 0.00 93 1009.6
20260509101939 8 202 12.9 22.5 0.00 0.00 0.00 93 1009.6
20260509101439 8 209 17.7 19.3 0.00 0.00 0.00 94 1009.6
20260509100940 8 226 12.9 19.3 0.00 0.00 0.00 95 1009.6
20260509100512 8 171 9.7 14.5 0.00 0.00 0.00 95 1009.8
20260509100439 8 171 9.7 14.5 0.00 0.00 0.00 95 1009.8
20260509095939 8 188 6.4 9.7 0.00 0.00 0.00 95 1009.8
20260509095439 8 181 4.8 8.0 0.00 0.00 0.00 96 1009.9
20260509094939 8 150 6.4 8.0 0.00 0.00 0.00 95 1009.9
20260509094440 8 160 1.6 8.0 0.00 0.00 0.00 95 1009.9
20260509093939 8 153 3.2 6.4 0.00 0.00 0.00 95 1009.9
20260509093440 8 144 4.8 6.4 0.00 0.00 0.00 95 1009.9
20260509092939 8 150 3.2 6.4 0.00 0.00 0.00 95 1009.9
20260509092512 8 144 3.2 4.8 0.00 0.00 0.00 95 1009.9
20260509092440 8 144 3.2 4.8 0.00 0.00 0.00 95 1009.9
20260509091939 8 142 3.2 4.8 0.00 0.00 0.00 95 1009.9
20260509091439 8 106 3.2 3.2 0.00 0.00 0.00 95 1010.0
20260509090939 8 52 3.2 3.2 0.00 0.00 0.00 95 1010.0
20260509090439 8 46 1.6 3.2 0.00 0.00 0.00 95 1010.1
20260509085939 8 54 3.2 4.8 0.00 0.00 0.00 95 1010.1
20260509085439 8 40 3.2 4.8 0.00 0.00 0.00 95 1010.1
20260509084940 8 53 4.8 4.8 0.00 0.00 0.00 95 1010.1
20260509084512 8 78 1.6 4.8 0.00 0.00 0.00 95 1010.1
20260509084439 8 78 1.6 4.8 0.00 0.00 0.00 95 1010.1
20260509083939 8 28 4.8 6.4 0.00 0.00 0.00 95 1010.2
20260509083439 8 4 3.2 6.4 0.00 0.00 0.00 95 1010.1
20260509082938 8 43 6.4 8.0 0.00 0.00 0.00 95 1010.0
20260509082513 8 40 3.2 8.0 0.00 0.00 0.00 95 1010.0
20260509082439 8 40 3.2 8.0 0.00 0.00 0.00 95 1010.0
20260509081939 8 68 4.8 12.9 0.00 0.00 0.00 96 1009.8
20260509081439 8 94 9.7 14.5 0.00 0.00 0.00 96 1009.6
20260509080939 8 95 11.3 12.9 0.00 0.00 0.00 96 1009.6
20260509080439 8 39 6.4 11.3 0.00 0.00 0.00 96 1009.8
20260509075941 8 64 4.8 6.4 0.00 0.00 0.00 96 1009.8
20260509075443 8 40 3.2 6.4 0.00 0.00 0.00 96 1009.8
20260509074939 8 28 1.6 6.4 0.00 0.00 0.00 96 1009.9
20260509074513 8 35 3.2 8.0 0.00 0.00 0.00 96 1009.8
20260509074441 8 35 3.2 8.0 0.00 0.00 0.00 96 1009.8
20260509073439 8 16 4.8 8.0 0.00 0.00 0.00 96 1009.9
20260509072940 8 32 6.4 8.0 0.00 0.00 0.00 96 1010.0
20260509072442 8 45 4.8 8.0 0.00 0.00 0.00 96 1010.1
20260509071940 8 36 4.8 8.0 0.00 0.00 0.00 96 1010.1
20260509070939 8 59 9.7 9.7 0.00 0.00 0.00 96 1010.1
20260509070439 8 56 4.8 9.7 0.00 0.00 0.00 96 1010.2
20260509065942 8 90 4.8 9.7 0.00 0.00 0.00 96 1010.3
20260509065439 8 70 4.8 12.9 0.00 0.00 0.00 96 1010.4
20260509064943 8 60 3.2 9.7 0.00 0.00 0.00 96 1010.5
20260509064439 8 99 6.4 11.3 0.00 0.00 0.00 96 1010.5
20260509063943 8 66 4.8 9.7 0.00 0.00 0.00 96 1010.6
20260509063442 8 56 11.3 12.9 0.00 0.00 0.00 96 1010.6
20260509062943 8 64 8.0 14.5 0.00 0.00 0.00 96 1010.7
20260509062441 8 95 11.3 12.9 0.00 0.00 0.00 96 1010.8
20260509061940 8 82 6.4 12.9 0.00 0.00 0.00 96 1010.9
20260509061439 8 73 11.3 11.3 0.00 0.00 0.00 96 1010.9
20260509060939 8 54 6.4 11.3 0.00 0.00 0.00 96 1010.9
20260509060440 8 77 9.7 11.3 0.00 0.00 0.00 96 1011.0
20260509055940 8 66 11.3 11.3 0.00 0.00 0.00 96 1011.0
20260509055442 8 78 8.0 14.5 0.00 0.00 0.00 96 1011.1
20260509054940 8 81 9.7 14.5 0.00 0.00 0.00 96 1011.3
20260509054440 8 95 12.9 12.9 0.00 0.00 0.00 96 1011.2
20260509053939 8 60 9.7 14.5 0.00 0.00 0.00 96 1011.2
20260509053440 8 91 11.3 12.9 0.00 0.00 0.00 96 1011.3
20260509052940 8 85 11.3 12.9 0.00 0.00 0.00 96 1011.3
20260509052440 8 94 9.7 11.3 0.00 0.00 0.00 96 1011.4
20260509051940 8 92 11.3 12.9 0.00 0.00 0.00 96 1011.4
20260509051441 8 87 4.8 11.3 0.00 0.00 0.00 96 1011.4
20260509050939 8 77 8.0 9.7 0.00 0.00 0.00 96 1011.6
20260509050441 8 59 9.7 12.9 0.00 0.00 0.00 96 1011.6
20260509045939 8 45 6.4 9.7 0.00 0.00 0.00 96 1011.7
20260509045441 8 56 8.0 9.7 0.00 0.00 0.00 96 1011.8
20260509044939 8 56 6.4 11.3 0.00 0.00 0.00 95 1011.9
20260509044515 8 82 11.3 11.3 0.00 0.00 0.00 95 1011.9
20260509044440 8 82 11.3 11.3 0.00 0.00 0.00 95 1011.9
20260509043939 8 46 8.0 11.3 0.00 0.00 0.00 95 1012.0
20260509043440 8 98 9.7 9.7 0.00 0.00 0.00 95 1012.0
20260509042939 8 91 4.8 6.4 0.00 0.00 0.00 95 1012.1
20260509042439 8 122 6.4 8.0 0.00 0.00 0.00 95 1012.2
20260509041939 8 123 4.8 8.0 0.00 0.00 0.00 95 1012.4
20260509041440 8 91 6.4 8.0 0.00 0.00 0.00 95 1012.5
20260509040939 8 32 0.0 6.4 0.00 0.00 0.00 95 1012.5
20260509040441 8 85 6.4 9.7 0.00 0.00 0.00 95 1012.6
20260509035941 8 29 0.0 0.0 0.00 0.00 0.00 95 1012.7
20260509035439 8 29 0.0 0.0 0.00 0.00 0.00 95 1012.8
20260509034939 8 29 0.0 1.6 0.00 0.00 0.00 95 1012.8
20260509034511 8 40 1.6 6.4 0.00 0.00 0.00 95 1012.7
20260509034440 8 40 1.6 6.4 0.00 0.00 0.00 95 1012.7
20260509033939 8 29 4.8 4.8 0.00 0.00 0.00 95 1012.8
20260509033441 8 22 3.2 3.2 0.00 0.00 0.00 95 1012.8
20260509032939 8 32 0.0 0.0 0.00 0.00 0.00 95 1012.9
20260509032440 8 32 0.0 1.6 0.00 0.00 0.00 95 1012.9
20260509031941 8 29 0.0 0.0 0.00 0.00 0.00 95 1012.9
20260509031440 8 29 0.0 3.2 0.00 0.00 0.00 95 1013.0
20260509030943 8 57 3.2 3.2 0.00 0.00 0.00 95 1013.0
20260509030514 8 35 1.6 3.2 0.00 0.00 0.00 95 1013.0
20260509030441 8 35 1.6 3.2 0.00 0.00 0.00 95 1013.0
20260509030143 8 81 1.6 3.2 0.00 0.00 0.00 95 1012.9
20260509025940 8 81 1.6 3.2 0.00 0.00 0.00 95 1012.9
20260509025440 8 46 3.2 3.2 0.00 0.00 0.00 95 1012.9
20260509024941 8 50 1.6 1.6 0.00 0.00 0.00 95 1013.0
20260509024440 8 14 1.6 4.8 0.00 0.00 0.00 95 1013.0
20260509023440 8 302 0.0 4.8 0.00 0.00 0.00 94 1013.1
20260509022940 8 1 3.2 4.8 0.00 0.00 0.00 95 1012.9
20260509022440 8 291 0.0 3.2 0.00 0.00 0.00 94 1013.0
20260509021940 8 12 0.0 0.0 0.00 0.00 0.00 94 1012.8
20260509021440 8 12 0.0 1.6 0.00 0.00 0.00 94 1012.8
20260509020940 8 50 1.6 1.6 0.00 0.00 0.00 94 1012.7
20260509020441 8 25 0.0 0.0 0.00 0.00 0.00 94 1012.6
20260509015940 8 25 0.0 3.2 0.00 0.00 0.00 94 1012.6
20260509015440 8 106 0.0 1.6 0.00 0.00 0.00 94 1012.5
20260509014940 8 36 1.6 4.8 0.00 0.00 0.00 94 1012.4
20260509014440 8 68 3.2 3.2 0.00 0.00 0.00 94 1012.4
20260509013940 8 60 3.2 3.2 0.00 0.00 0.00 94 1012.4
20260509013441 8 80 3.2 3.2 0.00 0.00 0.00 94 1012.5
20260509012940 8 303 0.0 0.0 0.00 0.00 0.00 94 1012.4
20260509012440 8 303 0.0 0.0 0.00 0.00 0.00 94 1012.4
20260509011940 8 303 0.0 0.0 0.00 0.00 0.00 93 1012.5
20260509011514 8 303 0.0 1.6 0.00 0.00 0.00 93 1012.2
20260509011440 8 303 0.0 1.6 0.00 0.00 0.00 93 1012.2
20260509010940 8 315 0.0 3.2 0.00 0.00 0.00 93 1012.2
20260509010441 8 338 3.2 4.8 0.00 0.00 0.00 93 1012.1
20260509005940 8 209 0.0 0.0 0.00 0.00 0.00 93 1012.0
20260509005512 8 209 0.0 0.0 0.00 0.00 0.00 93 1012.0
20260509005440 8 209 0.0 0.0 0.00 0.00 0.00 93 1012.0
20260509004940 8 226 0.0 1.6 0.00 0.00 0.00 92 1012.0
20260509004515 8 130 0.0 3.2 0.00 0.00 0.00 92 1011.9
20260509004440 8 130 0.0 3.2 0.00 0.00 0.00 92 1011.9
20260509003515 8 184 3.2 4.8 0.00 0.00 0.00 92 1012.0
20260509003441 8 184 3.2 4.8 0.00 0.00 0.00 92 1012.0
20260509002940 8 178 3.2 4.8 0.00 0.00 0.00 92 1011.9
20260509002440 8 167 4.8 4.8 0.00 0.00 0.00 92 1011.9
20260509001940 8 205 0.0 1.6 0.00 0.00 0.00 91 1011.9
20260509001440 8 236 1.6 4.8 0.00 0.00 0.00 91 1012.0
20260509000941 8 220 1.6 4.8 0.00 0.00 0.00 90 1012.1
20260509000441 8 232 4.8 4.8 0.00 0.00 0.00 90 1012.0
20260508235940 8 229 3.2 4.8 0.00 0.00 0.00 90 1012.0
20260508235440 8 253 3.2 3.2 0.00 0.00 0.00 90 1012.0
20260508234940 8 184 0.0 4.8 0.00 0.00 0.00 89 1012.0
20260508234441 8 234 4.8 8.0 0.00 0.00 0.00 89 1012.2
20260508234337 8 262 4.8 6.4 0.00 0.00 0.00 89 1012.0
20260508233940 8 262 4.8 6.4 0.00 0.00 0.00 89 1012.0
20260508233441 8 278 4.8 8.0 0.00 0.00 0.00 89 1012.0
20260508232940 9 285 1.6 6.4 0.00 0.00 0.00 88 1012.0
20260508232440 9 258 1.6 8.0 0.00 0.00 0.00 88 1011.9
20260508231940 9 251 8.0 9.7 0.00 0.00 0.00 88 1012.0
20260508231440 8 262 9.7 14.5 0.00 0.00 0.00 88 1012.1
20260508230942 8 247 8.0 11.3 0.00 0.00 0.00 87 1012.1
20260508230441 9 250 9.7 14.5 0.00 0.00 0.00 86 1012.0
20260508225940 8 265 9.7 14.5 0.00 0.00 0.00 86 1012.1
20260508225440 8 278 11.3 16.1 0.00 0.00 0.00 85 1012.1
20260508224940 9 262 8.0 19.3 0.00 0.00 0.00 85 1012.1
20260508224440 9 264 12.9 19.3 0.00 0.00 0.00 84 1012.2
20260508223940 9 286 9.7 20.9 0.00 0.00 0.00 83 1012.1
20260508223442 9 312 19.3 27.4 0.00 0.00 0.00 83 1012.2
20260508222940 9 296 22.5 30.6 0.00 0.00 0.00 82 1012.3
20260508222440 10 275 12.9 17.7 0.00 0.00 0.00 83 1012.3
20260508222013 10 250 20.9 25.7 0.00 0.00 0.00 79 1012.4
20260508221940 9 271 20.9 30.6 0.00 0.00 0.00 82 1012.4
20260508221440 10 250 20.9 25.7 0.00 0.00 0.00 79 1012.4
20260508220940 10 254 17.7 20.9 0.00 0.00 0.00 77 1012.4
20260508220441 11 240 20.9 20.9 0.00 0.00 0.00 76 1012.2
20260508215940 11 243 12.9 22.5 0.00 0.00 0.00 75 1012.2
20260508215440 11 240 11.3 22.5 0.00 0.00 0.00 74 1012.1
20260508214943 11 267 14.5 22.5 0.00 0.00 0.00 74 1012.1
20260508214441 11 234 11.3 16.1 0.00 0.00 0.00 74 1012.1
20260508213940 11 239 11.3 17.7 0.00 0.00 0.00 74 1012.1
20260508213441 11 232 14.5 19.3 0.00 0.00 0.00 75 1012.0
20260508212941 11 246 17.7 20.9 0.00 0.00 0.00 75 1012.1
20260508212440 11 260 11.3 20.9 0.00 0.00 0.00 75 1012.0
20260508211941 11 234 11.3 20.9 0.00 0.00 0.00 74 1012.1
20260508211440 11 248 16.1 20.9 0.00 0.00 0.00 75 1012.3
20260508210943 11 244 20.9 29.0 0.00 0.00 0.00 73 1012.3
20260508210441 11 241 16.1 25.7 0.00 0.00 0.00 74 1012.2
20260508205944 11 268 16.1 27.4 0.00 0.00 0.00 74 1012.1
20260508205440 11 272 24.1 33.8 0.00 0.00 0.00 73 1012.1
20260508204941 11 229 22.5 33.8 0.00 0.00 0.00 73 1012.0
20260508204441 11 251 19.3 37.0 0.00 0.00 0.00 74 1012.1
20260508203941 11 236 27.4 29.0 0.00 0.00 0.00 75 1012.2
20260508203442 11 234 19.3 29.0 0.00 0.00 0.00 76 1012.1
20260508202941 11 229 22.5 37.0 0.00 0.00 0.00 77 1012.1
20260508202440 11 244 22.5 24.1 0.00 0.00 0.00 80 1012.2
20260508201941 11 219 16.1 17.7 0.00 0.00 0.00 81 1012.2
20260508201441 11 253 16.1 17.7 0.00 0.00 0.00 81 1012.2
20260508200941 11 244 14.5 17.7 0.00 0.00 0.00 81 1012.2
20260508200441 11 243 11.3 17.7 0.00 0.00 0.00 82 1012.2
20260508195941 11 258 12.9 17.7 0.00 0.00 0.00 82 1012.3
20260508195441 11 274 12.9 19.3 0.00 0.00 0.00 83 1012.3
20260508195015 11 254 8.0 17.7 0.00 0.00 0.00 83 1012.3
20260508194941 11 254 8.0 17.7 0.00 0.00 0.00 83 1012.3
20260508194440 10 275 9.7 12.9 0.00 0.00 0.00 83 1012.4
20260508193941 10 286 8.0 17.7 0.00 0.00 0.00 84 1012.4
20260508193443 10 257 16.1 17.7 0.00 0.00 0.00 84 1012.4
20260508193015 10 258 9.7 16.1 0.00 0.00 0.00 84 1012.5
20260508192941 10 258 9.7 16.1 0.00 0.00 0.00 84 1012.5
20260508192441 10 248 11.3 20.9 0.00 0.00 0.00 83 1012.6
20260508191941 9 240 16.1 29.0 0.00 0.00 0.00 82 1012.7
20260508191440 10 227 12.9 30.6 0.00 0.00 0.00 81 1012.7
20260508191014 10 237 30.6 46.7 0.00 0.00 0.00 78 1012.6
20260508190941 10 237 30.6 46.7 0.00 0.00 0.00 78 1012.6
20260508190442 11 232 40.2 43.5 0.00 0.00 0.00 71 1012.5
20260508185941 11 244 22.5 25.7 0.00 0.00 0.00 67 1012.3
20260508185441 12 236 16.1 27.4 0.00 0.00 0.00 63 1012.3
20260508184941 12 225 22.5 24.1 0.00 0.00 0.00 62 1012.3
20260508184441 12 246 14.5 24.1 0.00 0.00 0.00 60 1012.2
20260508183941 12 248 14.5 24.1 0.00 0.00 0.00 59 1012.1
20260508183441 12 247 22.5 29.0 0.00 0.00 0.00 58 1012.0
20260508182941 12 255 33.8 35.4 0.00 0.00 0.00 55 1011.9
20260508182441 13 230 9.7 14.5 0.00 0.00 0.00 56 1012.0
20260508181941 13 289 6.4 24.1 0.00 0.00 0.00 57 1012.1
20260508181441 12 244 19.3 25.7 0.00 0.00 0.00 58 1012.1
20260508180942 12 262 9.7 22.5 0.00 0.00 0.00 58 1012.3
20260508180443 12 289 11.3 32.2 0.00 0.00 0.00 57 1012.3
20260508175941 13 253 22.5 24.1 0.00 0.00 0.00 53 1012.3
20260508175516 13 243 17.7 30.6 0.00 0.00 0.00 51 1012.1
20260508175441 13 243 17.7 30.6 0.00 0.00 0.00 51 1012.1
20260508174941 13 234 25.7 32.2 0.00 0.00 0.00 50 1012.1
20260508174441 13 279 24.1 30.6 0.00 0.00 0.00 50 1012.1